Regional Weather Roundup
Issued by NWS Northern Indiana

Home | Current Version | Previous Version | Text Only | Print | Product List | Glossary On
Versions: 1 2 3 4 5 6 7 8 9 10 11 12 13 14 15 16 17 18 19 20 21 22 23 24 25 26 27 28 29 30 31 32 33 34 35 36 37 38 39 40 41 42 43 44 45 46 47 48 49 50
000
ASUS43 KIWX 222110
RWRIWX

KIWX WEATHER ROUNDUP
NATIONAL WEATHER SERVICE NORTHERN INDIANA
500 PM EDT MON SEP 22 2014

NOTE: "FAIR" INDICATES FEW OR NO CLOUDS BELOW 12,000 FEET WITH NO
SIGNIFICANT WEATHER AND/OR OBSTRUCTIONS TO VISIBILITY.

* THESE STATIONS ARE NOT UNDER NWS QUALITY CONTROL. THEY ALSO MAY NOT
  REPORT WEATHER SUCH AS PRECIPITATION OR FOG.

INZ001>027-222200-
NORTHERN INDIANA

CITY           SKY/WX    TMP DP  RH WIND       PRES   REMARKS
GARY*          SUNNY     64  41  42 NE9       30.26F
VALPARAISO     SUNNY     62  44  51 NW8       30.26F
MICHIGAN CITY* SUNNY     59  43  55 N3        30.26F
LAPORTE*       SUNNY     60  44  55 N6        30.26S
KNOX*          SUNNY     64  43  46 N10       30.24S
SOUTH BEND     SUNNY     63  44  50 N12       30.25S
ELKHART*       SUNNY     63  41  45 NW7       30.24S
GOSHEN         SUNNY    N/A N/A N/A NW9       30.23S
MONTICELLO*    SUNNY     66  46  48 CALM      30.22F
LOGANSPORT*    SUNNY     63  43  48 NW6       30.24F
ROCHESTER*     SUNNY     68  45  42 N7        30.24S
WARSAW*        SUNNY     63  43  48 N8        30.23F
ANGOLA*        SUNNY     64  55  72 NW12      30.21F
FORT WAYNE     MOSUNNY   64  43  46 NW8       30.22F
HUNTINGTON*    SUNNY     63  44  50 NW6       30.22F
PERU/GRISSOM   SUNNY     64  47  52 NW7       30.23F
MARION*        SUNNY     64  39  40 CALM      30.24S

$$
INZ028>050-222200-
CENTRAL INDIANA

CITY           SKY/WX    TMP DP  RH WIND       PRES   REMARKS
LAFAYETTE      SUNNY     65  45  48 NE5       30.23F
KOKOMO*        SUNNY     66  43  42 NW5       30.23F
MUNCIE*        SUNNY     65  40  39 VRB6      30.23S
INDIANAPOLIS   SUNNY     66  42  41 VRB7      30.23F

$$
MIZ043>046-050>051-056>058-064>065-071>073-077>080-222200-
SOUTHWEST LOWER MICHIGAN

CITY           SKY/WX    TMP DP  RH WIND       PRES   REMARKS
BATTLE CREEK   SUNNY     63  44  50 NW12      30.22F
BENTON HARBOR  MOSUNNY   58  48  69 W8        30.25F
COLDWATER*     SUNNY     64  43  45 NW7       30.21S
HILLSDALE*     SUNNY     63  40  43 NW10      30.21S
HOLLAND        SUNNY     61  47  59 W12       30.25S
GRAND RAPIDS   PTSUNNY   63  47  55 W13       30.22S
KALAMAZOO      MOSUNNY   63  45  51 NW14      30.23S
STURGIS*       SUNNY     63  45  51 NW6       30.21F
THREE RIVERS*  FAIR      64  46  52 NW13      30.23S

$$
OHZ001>008-015>018-024>025-222200-
NORTHWEST OHIO

CITY           SKY/WX    TMP DP  RH WIND       PRES   REMARKS
WAUSEON*       FAIR      64  39  39 N9        30.19F
DEFIANCE       SUNNY    N/A N/A N/A NW9       30.20F
FINDLAY        SUNNY     64  40  41 W8        30.19F
TOLEDO EXPRESS SUNNY     64  39  39 NW10      30.19F
TOLEDO METCALF SUNNY     64  41  42 NW8       30.20S
LIMA           SUNNY     63  41  44 NW8       30.21F

$$
AND FOR LAKE MICHIGAN COASTAL AND OPEN LAKE BUOY OBSERVATIONS

STATION/POSITION TEMP    WIND        PRES    VSBY  WAVE
                 AIR SEA DIR/SP/G                  HT/PER
                 (F)     (DEG/KT/KT) (MB)    (MI)  (FT/S)
CALUMET HARBOR    58      60/  6/  8 1023.3S
MICHIGAN CITY     60     290/  3/  5   N/A
SAINT JOSEPH      58     290/  4/  7 1024.7F
SOUTH LAKE BUOY   59 62  210/  8/ 10 1024.1F         2/ 6
4 MI NW BRIDGMAN  57 65  300/  8/ 10   N/A           2/ 4
MICHIGAN CITY     57 64  310/  2/  4   N/A           3/ 6

$$
&&


USA.gov is the U.S. government's official web portal to all federal, state and local government web resources and services.